Location: Newark
(22.3060°N, 114.2134°E)
Time: 19:49:06
(UTC+00:00)

Vanguard 2 - Pass Details

Date: 08 August 2021
Orbit: 553 x 2937 km, 32.9° (Epoch: 27 September)

Event Time Altitude Azimuth Distance (km) Brightness Sun altitude
Rises 13:49:19 0° 204° (SSW) 5,634 11.8 -35.3°
Enters shadow 13:51:21 - 199° (SSW) 5,104 11.5 -35.7°
Reaches altitude 10° 13:55:33 10° 185° (S) 4,071 - -36.4°
Maximum altitude 14:00:53 15° 154° (SSE) 3,130 - -37.3°
Drops below altitude 10° 14:05:08 10° 120° (ESE) 3,090 - -38.0°
Sets 14:08:46 0° 97° (E) 3,664 - -38.6°
